Regional Weather Roundup
Issued by NWS Sterling, VA

Home | Current Version | Previous Version | Graphics & Text | Print | Product List | Glossary On
Versions: 1 2 3 4 5 6 7 8 9 10 11 12 13 14 15 16 17 18 19 20 21 22 23 24 25 26 27 28
000
ASUS41 KLWX 241611
RWRLWX

REGIONAL WEATHER ROUNDUP
NATIONAL WEATHER SERVICE BALTIMORE MD/WASHINGTON DC
1200 PM EDT SUN JUL 24 2016

Note: "FAIR" indicates few or no clouds below 12,000 feet
with no significant weather and/or obstructions to visibility.
 TC=TEMPERATURE CELSIUS

 * =Non NWS site. Station does not report precipitation (e.g. rain,
    snow, etc.), thunder, or fog.

DCZ001-MDZ009-015-VAZ040>042-051-053>054-241700-
WASHINGTON METRO

CITY           SKY/WX    TMP DP  RH WIND       PRES   REMARKS
WASHINGTON NAT PTSUNNY   92  66  42 VRB7      30.01R HX  94
DULLES         PTSUNNY   92  61  35 E6        30.02R HX  92
ANDREWS AFB    MOSUNNY   88  64  43 E6        30.01R
FT BELVOIR     FAIR      92  64  39 VRB5      30.00S HX  93
QUANTICO       PTSUNNY   90  70  51 CALM      30.01R HX  95
COLLEGE PARK*  FAIR      90  63  40 CALM      30.01R HX  90
LEESBURG*      FAIR      93  64  38 CALM      30.03S HX  95
MANASSAS*      SUNNY     91  64  40 SW3       30.02R HX  93
GAITHERSBURG*  MOSUNNY   90  66  45 S6        30.06R HX  92

$$

MDZ006>007-011-014-241700-
BALTIMORE METRO

CITY           SKY/WX    TMP DP  RH WIND       PRES   REMARKS
BWI AIRPORT    PTSUNNY   90  60  36 VRB5      30.01R
MD SCIENCE CTR   N/A     91  59  33 MISG      30.01R HX  90
MARTIN STATE   PTSUNNY   88  66  48 CALM      30.02R HX  90
ANNAPOLIS      MOSUNNY   87  66  49 SE3       30.00R
FORT MEADE*    MOSUNNY   88  64  45 CALM      30.03R

$$

MDZ012-015-019>023-241700-
MARYLAND EASTERN SHORE

CITY           SKY/WX    TMP DP  RH WIND       PRES   REMARKS
OCEAN CITY     SUNNY     83  71  67 NE8       30.00R
SALISBURY      MOSUNNY   91  67  44 E5        29.99R HX  94
BAY BRIDGE AP* MOSUNNY   88  68  51 NE3       30.00R HX  91
CAMBRIDGE*     MOSUNNY   90  64  43 E5        29.99R HX  91
EASTON*        CLOUDY    91  72  52 SE5       30.04R HX  98

$$

MDZ017>025-241700-
SOUTHERN MARYLAND

CITY           SKY/WX    TMP DP  RH WIND       PRES   REMARKS
PATUXENT RIVER PTSUNNY   89  67  47 VRB5      30.00R HX  92
ST INIGOES     MOSUNNY   91  69  48 E8        29.99R HX  96
LEONARDTOWN*   MOSUNNY   88  64  45 NE3       30.02R

$$

MDZ003>005-241700-
NORTH CENTRAL MARYLAND

CITY           SKY/WX    TMP DP  RH WIND       PRES   REMARKS
FREDERICK*     SUNNY     90  61  37 CALM      30.05R
HAGERSTOWN APT MOSUNNY   88  61  40 S8        30.03S

$$

MDZ501>502-241700-
WESTERN MARYLAND

CITY           SKY/WX    TMP DP  RH WIND       PRES   REMARKS
OAKLAND*       MOSUNNY   81  68  65 NW5       30.17R
CUMBERLAND*    SUNNY     90  68  48 CALM      30.07S HX  93

$$

VAZ025>031-241700-
SHENANDOAH VALLEY

CITY           SKY/WX    TMP DP  RH WIND       PRES   REMARKS
WINCHESTER*    FAIR      90  63  40 CALM      30.04R HX  90
FRONT ROYAL*   FAIR      90  63  40 CALM      30.03S HX  90
LURAY*         FAIR      88  73  62 CALM      30.05R HX  96
NEW MARKET*    FAIR     N/A N/A N/A CALM      30.03S
STAUNTON*      FAIR      86  72  62 CALM      30.09R HX  92
WAYNESBORO*    FAIR      87  71  58 SE9       30.09R HX  92

$$

WVZ021-048>050-054>055-241700-
EASTERN WEST VIRGINIA PANHANDLE

CITY           SKY/WX    TMP DP  RH WIND       PRES   REMARKS
MARTINSBURG    FAIR      92  64  39 S12       30.02R HX  93
PETERSBURG*    FAIR      91  72  54 SE3       30.04F HX  98

$$

VAZ036>039-050-241700-
CENTRAL FOOTHILLS

CITY           SKY/WX    TMP DP  RH WIND       PRES   REMARKS
CHARLOTTESVILL FAIR      94  64  37 E6        30.03R HX  95
CULPEPER*      FAIR      91  69  49 CALM      30.03R HX  95
ORANGE*        NOT AVBL
GORDONSVILLE*  FAIR      90  68  48 E3        30.02S HX  93
WARRENTON*     FAIR      92  59  33 CALM      30.02R HX  91

$$

VAZ055>057-241700-
NORTH AND CENTRAL PIEDMONT

CITY           SKY/WX    TMP DP  RH WIND       PRES   REMARKS
FREDERICKSBRG*   N/A     91  71  52 E5        29.99S HX  98
STAFFORD*      FAIR      91  67  45 S5        30.05R HX  94

$$

NCZ024-NYZ072-PAZ021-071-VAZ022-071-241700-
OTHER REGIONAL OBSERVATIONS

CITY           SKY/WX    TMP DP  RH WIND       PRES   REMARKS
NEW YORK CITY  SUNNY     88  60  38 CALM      30.00F
PHILADELPHIA   PTSUNNY   90  61  37 SE7       29.99S HX  90
PITTSBURGH     PTSUNNY   86  67  52 S7        30.03F
ROANOKE        FAIR      90  68  48 S6        30.08S HX  94
RICHMOND       PTSUNNY   91  74  57 CALM      29.99S HX 100
RALEIGH        PTSUNNY   91  74  57 VRB5      30.04S HX 100

$$

ANZ530>537-241700-
MARINE OBSERVATIONS

STATION/POSITION TIME  TEMP    WIND        PRES
                       AIR SEA DIR/SP/G
                 (UTC) (F)     (DEG/KT/KT) (MB)
THOMAS PT LIGHT  1600   83 83  360/  3/  4 1017.5R
BALT KEY BRIDGE  1548   83     140/  5/  6 1016.2R
COVE POINT       1548   84     340/  6/  8 1016.4R
LEWISETTA        1548   85 86   90/  5/  6 1015.3R
SOLOMONS ISLAND  1548   86 85   70/  2/  3   N/A
PINEY POINT      1548          140/  6/  7   N/A

$$





USA.gov is the U.S. government's official web portal to all federal, state and local government web resources and services.